This is the latest recevied weather packets stored in our database for station/object R1CBW-13. If no packets are shown the sender has not sent any weather packets the latest 1 day(s).
| Time | Temp. | Humidity | Pressure | Rain* | Wind** | Luminosity | Snow |
|---|---|---|---|---|---|---|---|
| 1778073995 | 10° C | 24% | 1012.7 hPa | 0 mm | - | - | - |
| 1778073935 | 9.44° C | 25% | 1012.8 hPa | 0 mm | - | - | - |
| 1778073875 | 10.56° C | 23% | 1012.8 hPa | 0 mm | - | - | - |
| 1778073755 | 10.56° C | 23% | 1012.6 hPa | 0 mm | - | - | - |
| 1778072975 | 8.89° C | 20% | 1012.7 hPa | 0 mm | - | - | - |
| 1778071474 | 9.44° C | 21% | 1012.7 hPa | 0 mm | - | - | - |
| 1778071294 | 10.56° C | 23% | 1012.6 hPa | 0 mm | - | - | - |
| 1778071114 | 10.56° C | 23% | 1012.5 hPa | 0 mm | - | - | - |
| 1778070874 | 11.11° C | 24% | 1012.7 hPa | 0 mm | - | - | - |
| 1778070754 | 10.56° C | 23% | 1012.5 hPa | 0 mm | - | - | - |
| 1778070694 | 10° C | 24% | 1012.6 hPa | 0 mm | - | - | - |
| 1778070574 | 9.44° C | 25% | 1012.6 hPa | 0 mm | - | - | - |
| 1778070514 | 9.44° C | 25% | 1012.6 hPa | 0 mm | - | - | - |
| 1778070454 | 10° C | 26% | 1012.7 hPa | 0 mm | - | - | - |
| 1778070334 | 9.44° C | 27% | 1012.6 hPa | 0 mm | - | - | - |
| 1778070274 | 9.44° C | 27% | 1012.7 hPa | 0 mm | - | - | - |
| 1778070214 | 8.89° C | 27% | 1012.7 hPa | 0 mm | - | - | - |
| 1778070154 | 9.44° C | 27% | 1012.8 hPa | 0 mm | - | - | - |
| 1778070094 | 9.44° C | 28% | 1012.7 hPa | 0 mm | - | - | - |
| 1778070034 | 10° C | 27% | 1012.6 hPa | 0 mm | - | - | - |
| 1778069974 | 10.56° C | 26% | 1012.5 hPa | 0 mm | - | - | - |
| 1778069914 | 10.56° C | 27% | 1012.5 hPa | 0 mm | - | - | - |
| 1778069854 | 11.67° C | 26% | 1012.5 hPa | 0 mm | - | - | - |
| 1778069794 | 11.11° C | 27% | 1012.4 hPa | 0 mm | - | - | - |
| 1778069674 | 10° C | 28% | 1012.4 hPa | 0 mm | - | - | - |
* Rain latest hour (hover to see other rain measurements)
** Current wind speed in m/s (hover to see current wind gust speed)